| time (UTC) | temp F | wind direction | speed MPH | gust MPH | rain 1hr in | rain 24hr in | rain mn in | humidity % | barometer mb |
| 20260905194748 | 77 | 0.0 | 1.0 | 0.00 | 0.00 | 0.00 | 11 | 1010.8 | |
| 20260905193735 | 77 | 1.0 | 3.0 | 0.00 | 0.00 | 0.00 | 11 | 1010.7 | |
| 20260905192724 | 77 | 1.0 | 3.0 | 0.00 | 0.00 | 0.00 | 11 | 1010.7 | |
| 20260905191712 | 77 | 1.0 | 4.0 | 0.00 | 0.00 | 0.00 | 11 | 1010.5 | |
| 20260905190701 | 77 | 0.0 | 4.0 | 0.00 | 0.00 | 0.00 | 11 | 1010.5 | |
| 20260905185649 | 77 | 1.0 | 3.0 | 0.00 | 0.00 | 0.00 | 11 | 1010.4 | |
| 20260905184636 | 77 | 0.0 | 6.0 | 0.00 | 0.00 | 0.00 | 11 | 1010.2 | |
| 20260905183625 | 78 | 1.0 | 3.0 | 0.00 | 0.00 | 0.00 | 11 | 1010.2 | |
| 20260905182613 | 78 | 0.0 | 5.0 | 0.00 | 0.00 | 0.00 | 11 | 1010.1 | |
| 20260905181601 | 78 | 1.0 | 1.0 | 0.00 | 0.00 | 0.00 | 11 | 1010.0 | |
| 20260905180547 | 78 | 1.0 | 3.0 | 0.00 | 0.00 | 0.00 | 11 | 1009.9 | |
| 20260905175536 | 78 | 0.0 | 3.0 | 0.00 | 0.00 | 0.00 | 11 | 1009.8 | |
| 20260905174525 | 78 | 0.0 | 3.0 | 0.00 | 0.00 | 0.00 | 11 | 1009.8 | |
| 20260905173513 | 78 | 4.0 | 6.0 | 0.00 | 0.00 | 0.00 | 11 | 1009.7 | |
| 20260905172502 | 78 | 0.0 | 3.0 | 0.00 | 0.00 | 0.00 | 11 | 1009.8 | |
| 20260905171450 | 80 | 2.0 | 5.0 | 0.00 | 0.00 | 0.00 | 11 | 1009.8 | |
| 20260905170439 | 80 | 1.0 | 6.0 | 0.00 | 0.00 | 0.00 | 11 | 1009.6 | |
| 20260905165427 | 80 | 3.0 | 5.0 | 0.00 | 0.00 | 0.00 | 11 | 1009.7 | |
| 20260905164416 | 80 | 3.0 | 10.0 | 0.00 | 0.00 | 0.00 | 11 | 1009.6 | |
| 20260905163404 | 80 | 4.0 | 6.0 | 0.00 | 0.00 | 0.00 | 11 | 1009.7 | |
| 20260905162352 | 80 | 4.0 | 9.0 | 0.00 | 0.00 | 0.00 | 11 | 1009.6 | |
| 20260905161340 | 82 | 5.0 | 9.0 | 0.00 | 0.00 | 0.00 | 11 | 1009.5 | |
| 20260905160328 | 82 | 5.0 | 9.0 | 0.00 | 0.00 | 0.00 | 11 | 1009.7 | |
| 20260905155315 | 82 | 3.0 | 8.0 | 0.00 | 0.00 | 0.00 | 11 | 1009.6 | |
| 20260905154303 | 82 | 6.0 | 9.0 | 0.00 | 0.00 | 0.00 | 11 | 1009.8 | |
| 20260905153150 | 82 | 5.0 | 8.0 | 0.00 | 0.00 | 0.00 | 11 | 1009.9 | |
| 20260905152139 | 84 | 2.0 | 8.0 | 0.00 | 0.00 | 0.00 | 11 | 1010.0 | |
| 20260905151124 | 84 | 4.0 | 9.0 | 0.00 | 0.00 | 0.00 | 11 | 1010.0 | |
| 20260905150113 | 84 | 4.0 | 12.0 | 0.00 | 0.00 | 0.00 | 11 | 1010.1 | |
| 20260905145100 | 84 | 6.0 | 11.0 | 0.00 | 0.00 | 0.00 | 11 | 1010.0 | |
| 20260905144049 | 84 | 6.0 | 12.0 | 0.00 | 0.00 | 0.00 | 11 | 1010.0 | |
| 20260905143037 | 86 | 5.0 | 8.0 | 0.00 | 0.00 | 0.00 | 11 | 1010.1 | |
| 20260905142026 | 82 | 5.0 | 14.0 | 0.00 | 0.00 | 0.00 | 11 | 1010.1 | |
| 20260905141014 | 84 | 4.0 | 11.0 | 0.00 | 0.00 | 0.00 | 11 | 1010.1 | |
| 20260905140002 | 84 | 6.0 | 9.0 | 0.00 | 0.00 | 0.00 | 11 | 1010.3 | |
| 20260905134951 | 86 | 5.0 | 11.0 | 0.00 | 0.00 | 0.00 | 11 | 1010.2 | |
| 20260905133940 | 84 | 7.0 | 12.0 | 0.00 | 0.00 | 0.00 | 11 | 1010.4 | |
| 20260905132928 | 86 | 5.0 | 10.0 | 0.00 | 0.00 | 0.00 | 11 | 1010.3 | |
| 20260905131916 | 86 | 5.0 | 11.0 | 0.00 | 0.00 | 0.00 | 11 | 1010.4 | |
| 20260905130905 | 86 | 3.0 | 10.0 | 0.00 | 0.00 | 0.00 | 11 | 1010.4 | |
| 20260905125854 | 86 | 6.0 | 13.0 | 0.00 | 0.00 | 0.00 | 11 | 1010.5 | |
| 20260905124842 | 86 | 6.0 | 11.0 | 0.00 | 0.00 | 0.00 | 11 | 1010.4 | |
| 20260905123828 | 87 | 7.0 | 11.0 | 0.00 | 0.00 | 0.00 | 11 | 1010.5 | |
| 20260905122816 | 86 | 4.0 | 9.0 | 0.00 | 0.00 | 0.00 | 11 | 1010.5 | |
| 20260905121803 | 89 | 2.0 | 12.0 | 0.00 | 0.00 | 0.00 | 11 | 1010.7 | |
| 20260905120752 | 86 | 5.0 | 10.0 | 0.00 | 0.00 | 0.00 | 11 | 1010.6 | |
| 20260905115740 | 86 | 4.0 | 8.0 | 0.00 | 0.00 | 0.00 | 11 | 1010.7 | |
| 20260905114728 | 87 | 2.0 | 9.0 | 0.00 | 0.00 | 0.00 | 11 | 1010.6 | |
| 20260905113717 | 86 | 4.0 | 11.0 | 0.00 | 0.00 | 0.00 | 11 | 1010.4 | |
| 20260905112705 | 86 | 2.0 | 8.0 | 0.00 | 0.00 | 0.00 | 11 | 1010.7 | |
| 20260905111653 | 87 | 4.0 | 6.0 | 0.00 | 0.00 | 0.00 | 11 | 1010.6 | |
| 20260905110642 | 87 | 2.0 | 6.0 | 0.00 | 0.00 | 0.00 | 11 | 1010.7 | |
| 20260905105630 | 84 | 1.0 | 5.0 | 0.00 | 0.00 | 0.00 | 11 | 1010.8 | |
| 20260905104618 | 82 | 0.0 | 6.0 | 0.00 | 0.00 | 0.00 | 11 | 1010.8 | |
| 20260905103607 | 84 | 3.0 | 6.0 | 0.00 | 0.00 | 0.00 | 11 | 1010.7 | |
| 20260905102555 | 82 | 3.0 | 5.0 | 0.00 | 0.00 | 0.00 | 11 | 1010.7 | |
| 20260905101544 | 82 | 2.0 | 4.0 | 0.00 | 0.00 | 0.00 | 11 | 1010.8 | |
| 20260905100533 | 80 | 1.0 | 1.0 | 0.00 | 0.00 | 0.00 | 11 | 1010.9 | |
| 20260905095521 | 80 | 3.0 | 5.0 | 0.00 | 0.00 | 0.00 | 11 | 1010.8 | |
| 20260905094510 | 80 | 3.0 | 6.0 | 0.00 | 0.00 | 0.00 | 11 | 1010.8 | |
| 20260905093458 | 80 | 1.0 | 4.0 | 0.00 | 0.00 | 0.00 | 11 | 1010.9 | |
| 20260905092446 | 80 | 2.0 | 4.0 | 0.00 | 0.00 | 0.00 | 11 | 1010.9 | |
| 20260905091435 | 80 | 1.0 | 4.0 | 0.00 | 0.00 | 0.00 | 11 | 1010.8 | |
| 20260905090423 | 78 | 3.0 | 5.0 | 0.00 | 0.00 | 0.00 | 11 | 1010.7 | |
| 20260905085411 | 78 | 0.0 | 3.0 | 0.00 | 0.00 | 0.00 | 11 | 1010.7 | |
| 20260905084357 | 78 | 0.0 | 3.0 | 0.00 | 0.00 | 0.00 | 11 | 1010.7 | |
| 20260905083344 | 78 | 0.0 | 1.0 | 0.00 | 0.00 | 0.00 | 11 | 1010.7 | |
| 20260905073034 | 77 | 0.0 | 0.0 | 0.00 | 0.00 | 0.00 | 11 | 1010.1 | |
| 20260905072024 | 77 | 0.0 | 0.0 | 0.00 | 0.00 | 0.00 | 11 | 1010.0 | |
| 20260905071012 | 77 | 0.0 | 1.0 | 0.00 | 0.00 | 0.00 | 11 | 1009.9 | |
| 20260905070001 | 77 | 0.0 | 0.0 | 0.00 | 0.00 | 0.00 | 11 | 1010.0 | |
| 20260905064949 | 78 | 0.0 | 1.0 | 0.00 | 0.00 | 0.00 | 11 | 1009.8 | |
| 20260905063938 | 77 | 0.0 | 0.0 | 0.00 | 0.00 | 0.00 | 11 | 1009.8 | |
| 20260905062723 | 77 | 0.0 | 0.0 | 0.00 | 0.00 | 0.00 | 11 | 1009.8 | |
| 20260905061610 | 77 | 0.0 | 0.0 | 0.00 | 0.00 | 0.00 | 11 | 1009.7 | |
| 20260905060154 | 77 | 0.0 | 1.0 | 0.00 | 0.00 | 0.00 | 11 | 1009.9 | |
| 20260905054334 | 77 | 0.0 | 1.0 | 0.00 | 0.00 | 0.00 | 11 | 1009.7 | |
| 20260905053222 | 77 | 0.0 | 0.0 | 0.00 | 0.00 | 0.00 | 11 | 1009.7 | |
| 20260905044126 | 77 | 0.0 | 1.0 | 0.00 | 0.00 | 0.00 | 11 | 1009.2 | |
| 20260905043114 | 77 | 0.0 | 0.0 | 0.00 | 0.00 | 0.00 | 11 | 1009.2 | |
| 20260905041355 | 77 | 0.0 | 0.0 | 0.00 | 0.00 | 0.00 | 11 | 1009.2 | |
| 20260905035130 | 75 | 0.0 | 0.0 | 0.00 | 0.00 | 0.00 | 11 | 1009.4 | |
| 20260905032904 | 77 | 0.0 | 0.0 | 0.00 | 0.00 | 0.00 | 11 | 1009.5 | |
| 20260905031651 | 75 | 0.0 | 1.0 | 0.00 | 0.00 | 0.00 | 11 | 1009.5 | |
| 20260905013501 | 75 | 0.0 | 0.0 | 0.00 | 0.00 | 0.00 | 11 | 1009.9 | |
| 20260905011337 | 75 | 0.0 | 0.0 | 0.00 | 0.00 | 0.00 | 11 | 1009.9 | |
| 20260905010123 | 75 | 0.0 | 1.0 | 0.00 | 0.00 | 0.00 | 11 | 1009.9 | |
| 20260904224014 | 75 | 0.0 | 0.0 | 0.00 | 0.00 | 0.00 | 11 | 1010.6 | |
| 20260904223002 | 75 | 0.0 | 0.0 | 0.00 | 0.00 | 0.00 | 11 | 1010.7 | |
| 20260904220333 | 75 | 0.0 | 1.0 | 0.00 | 0.00 | 0.00 | 11 | 1010.7 | |
| 20260904215320 | 75 | 0.0 | 1.0 | 0.00 | 0.00 | 0.00 | 11 | 1010.6 | |
| 20260904213459 | 75 | 0.0 | 1.0 | 0.00 | 0.00 | 0.00 | 11 | 1010.6 | |
| 20260904212448 | 75 | 0.0 | 1.0 | 0.00 | 0.00 | 0.00 | 11 | 1010.5 | |
| 20260904211437 | 75 | 0.0 | 0.0 | 0.00 | 0.00 | 0.00 | 11 | 1010.5 | |
| 20260904210426 | 75 | 0.0 | 1.0 | 0.00 | 0.00 | 0.00 | 11 | 1010.5 | |
| 20260904205414 | 77 | 0.0 | 2.0 | 0.00 | 0.00 | 0.00 | 11 | 1010.7 | |
| 20260904204403 | 77 | 0.0 | 0.0 | 0.00 | 0.00 | 0.00 | 11 | 1010.7 | |
| 20260904203149 | 77 | 0.0 | 1.0 | 0.00 | 0.00 | 0.00 | 11 | 1010.8 | |
| 20260904201832 | 77 | 0.0 | 1.0 | 0.00 | 0.00 | 0.00 | 11 | 1010.8 | |
| 20260904200821 | 77 | 0.0 | 0.0 | 0.00 | 0.00 | 0.00 | 11 | 1010.8 | |
| 20260904195808 | 77 | 0.0 | 2.0 | 0.00 | 0.00 | 0.00 | 11 | 1010.8 |